GIA212 WIII-WAHI

Flight info

Callsign GIA212
Flight time 0h 48m
Altitude 27000
Route PW W17 CLP
Aircraft B738/M-SDE2E3FGHIRWXY/LB1

Departure

Time 2026-04-25 07:49
Airport Soekarno-Hatta International Airport (WIII)

Arrival

Time 2026-04-25 08:37
Airport Yogyakarta International Airport (WAHI)
Time Latitude Longitude Altitude Speed Heading
2026-04-25 07:22 -6.11676 106.66613 37 ft 0 kts 161°
2026-04-25 07:35 -6.11670 106.66611 37 ft 3 kts 161°
2026-04-25 07:36 -6.11651 106.66605 35 ft 3 kts 165°
2026-04-25 07:36 -6.11631 106.66600 33 ft 3 kts 171°
2026-04-25 07:36 -6.11611 106.66598 34 ft 3 kts 181°
2026-04-25 07:36 -6.11591 106.66600 35 ft 3 kts 205°
2026-04-25 07:37 -6.11578 106.66610 35 ft 1 kts 246°
2026-04-25 07:37 -6.11576 106.66614 36 ft 0 kts 246°
2026-04-25 07:40 -6.11577 106.66613 37 ft 2 kts 246°
2026-04-25 07:40 -6.11594 106.66572 37 ft 10 kts 246°
2026-04-25 07:40 -6.11621 106.66511 36 ft 2 kts 246°
2026-04-25 07:40 -6.11630 106.66489 37 ft 4 kts 248°
2026-04-25 07:41 -6.11638 106.66461 37 ft 5 kts 268°
2026-04-25 07:41 -6.11636 106.66416 37 ft 7 kts 289°
2026-04-25 07:41 -6.11596 106.66387 34 ft 9 kts 334°
2026-04-25 07:41 -6.11521 106.66357 37 ft 14 kts 340°
2026-04-25 07:42 -6.11417 106.66315 37 ft 18 kts 339°
2026-04-25 07:42 -6.11354 106.66228 37 ft 16 kts 253°
2026-04-25 07:42 -6.11401 106.66107 36 ft 22 kts 248°
2026-04-25 07:42 -6.11462 106.65948 36 ft 27 kts 249°
2026-04-25 07:43 -6.11537 106.65762 36 ft 30 kts 248°
2026-04-25 07:43 -6.11613 106.65571 36 ft 28 kts 248°
2026-04-25 07:43 -6.11683 106.65396 37 ft 26 kts 248°
2026-04-25 07:43 -6.11752 106.65223 37 ft 27 kts 248°
2026-04-25 07:44 -6.11825 106.65040 37 ft 29 kts 248°
2026-04-25 07:44 -6.11900 106.64853 37 ft 28 kts 248°
2026-04-25 07:44 -6.11968 106.64682 37 ft 23 kts 248°
2026-04-25 07:44 -6.12023 106.64545 36 ft 20 kts 248°
2026-04-25 07:45 -6.12068 106.64431 37 ft 18 kts 249°
2026-04-25 07:45 -6.12117 106.64309 34 ft 20 kts 248°
2026-04-25 07:45 -6.12172 106.64172 37 ft 22 kts 246°
2026-04-25 07:45 -6.12232 106.64022 35 ft 24 kts 248°
2026-04-25 07:46 -6.12252 106.63916 38 ft 15 kts 271°
2026-04-25 07:46 -6.12216 106.63878 38 ft 8 kts 342°
2026-04-25 07:46 -6.12162 106.63881 38 ft 8 kts 22°
2026-04-25 07:46 -6.12105 106.63893 36 ft 7 kts
2026-04-25 07:47 -6.12080 106.63913 37 ft 0 kts 66°
2026-04-25 07:47 -6.12080 106.63914 37 ft 0 kts 66°
2026-04-25 07:48 -6.11998 106.64120 37 ft 68 kts 68°
2026-04-25 07:48 -6.11736 106.64777 40 ft 132 kts 68°
2026-04-25 07:49 -6.11347 106.65768 254 ft 169 kts 67°
2026-04-25 07:49 -6.10871 106.66971 678 ft 198 kts 65°
2026-04-25 07:49 -6.10375 106.68259 1422 ft 189 kts 65°
2026-04-25 07:49 -6.09557 106.69338 2079 ft 204 kts 45°
2026-04-25 07:50 -6.08485 106.70362 2361 ft 226 kts 45°
2026-04-25 07:50 -6.07365 106.71455 2764 ft 239 kts 46°
2026-04-25 07:50 -6.06131 106.72682 3128 ft 258 kts 46°
2026-04-25 07:50 -6.04882 106.73988 3940 ft 259 kts 56°
2026-04-25 07:51 -6.04288 106.75656 4861 ft 256 kts 85°
2026-04-25 07:51 -6.04358 106.77448 5675 ft 261 kts 95°
2026-04-25 07:51 -6.04596 106.79279 6476 ft 264 kts 97°
2026-04-25 07:51 -6.04865 106.81125 7175 ft 271 kts 97°
2026-04-25 07:52 -6.05138 106.83007 7954 ft 272 kts 97°
2026-04-25 07:52 -6.05410 106.84914 8741 ft 277 kts 97°
2026-04-25 07:52 -6.05886 106.86762 9426 ft 284 kts 118°
2026-04-25 07:52 -6.07112 106.88332 10202 ft 288 kts 129°
2026-04-25 07:53 -6.08491 106.89892 10514 ft 309 kts 130°
2026-04-25 07:53 -6.09979 106.91557 10695 ft 331 kts 130°
2026-04-25 07:53 -6.11544 106.93310 11137 ft 342 kts 130°
2026-04-25 07:53 -6.13124 106.95088 11826 ft 343 kts 130°
2026-04-25 07:54 -6.14721 106.96895 12508 ft 346 kts 129°
2026-04-25 07:54 -6.16324 106.98716 13144 ft 350 kts 129°
2026-04-25 07:54 -6.17942 107.00561 13763 ft 353 kts 129°
2026-04-25 07:54 -6.19574 107.02425 14312 ft 357 kts 129°
2026-04-25 07:55 -6.21219 107.04307 14830 ft 361 kts 129°
2026-04-25 07:55 -6.22890 107.06221 15356 ft 365 kts 129°
2026-04-25 07:55 -6.24578 107.08154 15902 ft 368 kts 129°
2026-04-25 07:55 -6.26276 107.10100 16430 ft 372 kts 129°
2026-04-25 07:56 -6.27991 107.12065 16959 ft 375 kts 129°
2026-04-25 07:56 -6.29722 107.14049 17476 ft 379 kts 129°
2026-04-25 07:56 -6.31469 107.16052 18004 ft 382 kts 129°
2026-04-25 07:56 -6.32638 107.17392 18289 ft 386 kts 129°
2026-04-25 07:57 -6.34992 107.20092 18906 ft 388 kts 129°
2026-04-25 07:57 -6.36776 107.22135 19374 ft 391 kts 129°
2026-04-25 07:57 -6.38576 107.24199 19765 ft 393 kts 130°
2026-04-25 07:57 -6.39794 107.25595 19806 ft 391 kts 129°
2026-04-25 07:58 -6.41577 107.27640 19822 ft 388 kts 129°
2026-04-25 07:58 -6.43340 107.29662 19836 ft 392 kts 129°
2026-04-25 07:58 -6.45151 107.31741 19846 ft 396 kts 130°
2026-04-25 07:58 -6.46960 107.33816 19833 ft 394 kts 129°
2026-04-25 07:59 -6.48762 107.35884 19836 ft 391 kts 129°
2026-04-25 07:59 -6.50555 107.37943 19856 ft 391 kts 130°
2026-04-25 07:59 -6.52364 107.40019 20082 ft 398 kts 129°
2026-04-25 07:59 -6.54189 107.42115 20610 ft 398 kts 130°
2026-04-25 08:00 -6.56014 107.44211 21054 ft 400 kts 130°
2026-04-25 08:00 -6.57775 107.46407 21412 ft 404 kts 125°
2026-04-25 08:00 -6.59402 107.48718 21802 ft 406 kts 123°
2026-04-25 08:00 -6.60990 107.51077 22239 ft 408 kts 123°
2026-04-25 08:01 -6.62578 107.53462 22615 ft 411 kts 123°
2026-04-25 08:01 -6.64158 107.55832 22994 ft 414 kts 123°
2026-04-25 08:01 -6.65778 107.58246 23371 ft 417 kts 123°
2026-04-25 08:01 -6.67415 107.60670 23719 ft 419 kts 123°
2026-04-25 08:02 -6.69060 107.63096 24030 ft 421 kts 124°
2026-04-25 08:02 -6.70721 107.65537 24360 ft 423 kts 124°
2026-04-25 08:02 -6.72389 107.67983 24682 ft 425 kts 124°
2026-04-25 08:02 -6.74068 107.70445 24972 ft 428 kts 124°
2026-04-25 08:03 -6.75756 107.72920 25262 ft 430 kts 124°
2026-04-25 08:03 -6.77453 107.75408 25600 ft 431 kts 124°
2026-04-25 08:03 -6.79157 107.77908 25948 ft 432 kts 124°
2026-04-25 08:03 -6.80853 107.80394 26388 ft 430 kts 124°
2026-04-25 08:04 -6.82544 107.82876 26784 ft 429 kts 124°
2026-04-25 08:04 -6.84217 107.85331 26855 ft 431 kts 124°
2026-04-25 08:04 -6.85918 107.87828 26868 ft 431 kts 124°
2026-04-25 08:04 -6.87617 107.90321 26876 ft 430 kts 124°
2026-04-25 08:05 -6.89304 107.92799 26872 ft 429 kts 124°
2026-04-25 08:05 -6.90989 107.95273 26878 ft 428 kts 124°
2026-04-25 08:05 -6.92674 107.97748 26880 ft 428 kts 124°
2026-04-25 08:05 -6.94354 108.00216 26882 ft 428 kts 124°
2026-04-25 08:06 -6.96034 108.02684 26885 ft 428 kts 124°
2026-04-25 08:06 -6.97718 108.05158 26875 ft 428 kts 124°
2026-04-25 08:06 -6.99403 108.07635 26874 ft 429 kts 124°
2026-04-25 08:06 -7.01084 108.10106 26872 ft 429 kts 124°
2026-04-25 08:07 -7.02774 108.12589 26868 ft 430 kts 124°
2026-04-25 08:07 -7.04464 108.15075 26870 ft 430 kts 124°
2026-04-25 08:07 -7.06139 108.17538 26871 ft 430 kts 124°
2026-04-25 08:07 -7.07832 108.20028 26867 ft 431 kts 124°
2026-04-25 08:08 -7.09527 108.22521 26861 ft 431 kts 124°
2026-04-25 08:08 -7.11227 108.25021 26865 ft 432 kts 124°
2026-04-25 08:08 -7.12923 108.27517 26862 ft 432 kts 124°
2026-04-25 08:08 -7.14618 108.30011 26860 ft 432 kts 124°
2026-04-25 08:09 -7.16313 108.32507 26861 ft 432 kts 124°
2026-04-25 08:09 -7.18007 108.34999 26852 ft 432 kts 124°
2026-04-25 08:09 -7.19705 108.37499 26851 ft 431 kts 124°
2026-04-25 08:09 -7.21396 108.39989 26847 ft 431 kts 124°
2026-04-25 08:10 -7.23086 108.42479 26849 ft 431 kts 124°
2026-04-25 08:10 -7.24778 108.44971 26844 ft 430 kts 124°
2026-04-25 08:10 -7.26442 108.47422 26839 ft 430 kts 124°
2026-04-25 08:10 -7.28151 108.49940 26839 ft 429 kts 124°
2026-04-25 08:11 -7.29812 108.52388 26838 ft 429 kts 124°
2026-04-25 08:11 -7.31497 108.54871 26836 ft 429 kts 124°
2026-04-25 08:11 -7.33184 108.57358 26838 ft 429 kts 124°
2026-04-25 08:11 -7.34868 108.59840 26833 ft 429 kts 124°
2026-04-25 08:12 -7.36555 108.62329 26834 ft 430 kts 124°
2026-04-25 08:12 -7.38243 108.64819 26830 ft 430 kts 124°
2026-04-25 08:12 -7.39934 108.67312 26830 ft 430 kts 124°
2026-04-25 08:12 -7.41619 108.69798 26832 ft 431 kts 124°
2026-04-25 08:13 -7.43309 108.72293 26832 ft 431 kts 124°
2026-04-25 08:13 -7.45002 108.74790 26832 ft 431 kts 124°
2026-04-25 08:13 -7.46693 108.77287 26830 ft 431 kts 124°
2026-04-25 08:14 -7.50079 108.82285 26830 ft 430 kts 124°
2026-04-25 08:14 -7.51738 108.84735 26814 ft 417 kts 124°
2026-04-25 08:14 -7.53342 108.87105 26820 ft 413 kts 124°
2026-04-25 08:14 -7.54950 108.89480 26819 ft 408 kts 124°
2026-04-25 08:15 -7.56550 108.91845 26805 ft 408 kts 124°
2026-04-25 08:15 -7.58178 108.94250 26475 ft 409 kts 124°
2026-04-25 08:15 -7.59753 108.96579 26080 ft 406 kts 124°
2026-04-25 08:15 -7.61336 108.98919 25676 ft 403 kts 124°
2026-04-25 08:16 -7.62902 109.01235 25261 ft 400 kts 124°
2026-04-25 08:16 -7.64468 109.03550 24818 ft 398 kts 124°
2026-04-25 08:16 -7.66004 109.05876 24379 ft 397 kts 123°
2026-04-25 08:16 -7.67503 109.08204 23951 ft 396 kts 122°
2026-04-25 08:17 -7.68992 109.10538 23504 ft 395 kts 122°
2026-04-25 08:17 -7.70474 109.12865 23023 ft 393 kts 122°
2026-04-25 08:17 -7.71949 109.15178 22567 ft 391 kts 122°
2026-04-25 08:17 -7.73415 109.17470 22125 ft 388 kts 122°
2026-04-25 08:18 -7.74873 109.19749 21700 ft 385 kts 122°
2026-04-25 08:18 -7.76320 109.22006 21277 ft 382 kts 122°
2026-04-25 08:18 -7.77757 109.24249 20862 ft 379 kts 122°
2026-04-25 08:18 -7.79183 109.26472 20448 ft 377 kts 122°
2026-04-25 08:19 -7.80598 109.28679 20041 ft 374 kts 122°
2026-04-25 08:19 -7.82014 109.30887 19632 ft 372 kts 122°
2026-04-25 08:19 -7.83414 109.33072 19213 ft 371 kts 122°
2026-04-25 08:19 -7.84795 109.35228 18798 ft 369 kts 122°
2026-04-25 08:20 -7.86185 109.37397 18385 ft 368 kts 122°
2026-04-25 08:20 -7.87573 109.39563 17951 ft 366 kts 122°
2026-04-25 08:20 -7.88948 109.41711 17514 ft 364 kts 122°
2026-04-25 08:20 -7.90327 109.43863 17093 ft 361 kts 122°
2026-04-25 08:21 -7.91686 109.45986 16684 ft 358 kts 122°
2026-04-25 08:21 -7.93033 109.48089 16287 ft 356 kts 122°
2026-04-25 08:21 -7.94370 109.50177 15890 ft 353 kts 122°
2026-04-25 08:21 -7.95696 109.52249 15492 ft 351 kts 122°
2026-04-25 08:22 -7.97015 109.54310 15116 ft 348 kts 122°
2026-04-25 08:22 -7.98325 109.56357 14729 ft 346 kts 122°
2026-04-25 08:22 -7.99625 109.58390 14338 ft 344 kts 122°
2026-04-25 08:22 -8.00907 109.60394 13953 ft 343 kts 122°
2026-04-25 08:23 -8.02199 109.62413 13542 ft 342 kts 122°
2026-04-25 08:23 -8.03484 109.64422 13124 ft 339 kts 122°
2026-04-25 08:23 -8.04757 109.66413 12721 ft 337 kts 122°
2026-04-25 08:23 -8.06023 109.68394 12426 ft 332 kts 122°
2026-04-25 08:24 -8.07265 109.70335 12095 ft 328 kts 122°
2026-04-25 08:24 -8.08498 109.72265 11738 ft 325 kts 122°
2026-04-25 08:24 -8.09718 109.74174 11379 ft 323 kts 122°
2026-04-25 08:24 -8.10932 109.76075 11017 ft 321 kts 121°
2026-04-25 08:25 -8.12137 109.77960 10661 ft 319 kts 121°
2026-04-25 08:25 -8.13329 109.79828 10436 ft 313 kts 121°
2026-04-25 08:25 -8.14493 109.81650 10280 ft 304 kts 121°
2026-04-25 08:25 -8.15628 109.83425 10148 ft 296 kts 121°
2026-04-25 08:26 -8.16724 109.85142 10035 ft 287 kts 121°
2026-04-25 08:26 -8.17730 109.86867 9735 ft 284 kts 110°
2026-04-25 08:26 -8.18229 109.88785 9445 ft 281 kts 100°
2026-04-25 08:26 -8.18618 109.90710 9141 ft 280 kts 100°
2026-04-25 08:27 -8.19014 109.92612 8837 ft 279 kts 101°
2026-04-25 08:27 -8.19422 109.94517 8536 ft 277 kts 101°
2026-04-25 08:27 -8.19501 109.96435 8221 ft 274 kts 77°
2026-04-25 08:27 -8.18743 109.98166 7935 ft 271 kts 52°
2026-04-25 08:28 -8.17349 109.99434 7589 ft 272 kts 31°
2026-04-25 08:28 -8.15580 110.00105 7251 ft 274 kts 14°
2026-04-25 08:28 -8.13706 110.00511 6868 ft 277 kts
2026-04-25 08:28 -8.11782 110.00383 6503 ft 281 kts 346°
2026-04-25 08:29 -8.10002 109.99553 6139 ft 284 kts 331°
2026-04-25 08:29 -8.08313 109.98517 5728 ft 281 kts 330°
2026-04-25 08:29 -8.06655 109.97495 5347 ft 275 kts 330°
2026-04-25 08:29 -8.05033 109.96508 4992 ft 270 kts 331°
2026-04-25 08:30 -8.03443 109.95545 4653 ft 264 kts 331°
2026-04-25 08:30 -8.01872 109.94600 4294 ft 259 kts 331°
2026-04-25 08:30 -8.00360 109.93693 3957 ft 254 kts 332°
2026-04-25 08:30 -7.98872 109.92801 3779 ft 239 kts 331°
2026-04-25 08:31 -7.97495 109.91975 3657 ft 220 kts 332°
2026-04-25 08:31 -7.96234 109.91218 3540 ft 202 kts 332°
2026-04-25 08:31 -7.95065 109.90518 3410 ft 189 kts 332°
2026-04-25 08:31 -7.93953 109.89854 3136 ft 184 kts 332°
2026-04-25 08:32 -7.92774 109.89388 2766 ft 180 kts 352°
2026-04-25 08:32 -7.91547 109.89128 2327 ft 183 kts 348°
2026-04-25 08:32 -7.90353 109.88850 2183 ft 178 kts 348°
2026-04-25 08:32 -7.89139 109.88700 2019 ft 173 kts 12°
2026-04-25 08:33 -7.88164 109.89274 1898 ft 160 kts 52°
2026-04-25 08:33 -7.87490 109.90175 1803 ft 161 kts 54°
2026-04-25 08:33 -7.86828 109.91052 1711 ft 155 kts 55°
2026-04-25 08:33 -7.86219 109.91924 1566 ft 151 kts 67°
2026-04-25 08:34 -7.86227 109.92936 1539 ft 149 kts 108°
2026-04-25 08:34 -7.86472 109.93961 1383 ft 147 kts 107°
2026-04-25 08:34 -7.86725 109.94986 1358 ft 152 kts 107°
2026-04-25 08:34 -7.87017 109.96018 1310 ft 151 kts 110°
2026-04-25 08:35 -7.87361 109.96990 1285 ft 147 kts 113°
2026-04-25 08:35 -7.87715 109.97962 1290 ft 148 kts 112°
2026-04-25 08:35 -7.88072 109.98939 1152 ft 149 kts 113°
2026-04-25 08:35 -7.88423 109.99919 927 ft 143 kts 112°
2026-04-25 08:36 -7.88762 110.00848 779 ft 140 kts 110°
2026-04-25 08:36 -7.89094 110.01771 599 ft 140 kts 112°
2026-04-25 08:36 -7.89423 110.02678 406 ft 136 kts 112°
2026-04-25 08:36 -7.89746 110.03571 223 ft 135 kts 111°
2026-04-25 08:37 -7.90066 110.04467 57 ft 137 kts 113°
2026-04-25 08:37 -7.90375 110.05295 30 ft 107 kts 110°
2026-04-25 08:37 -7.90580 110.05856 37 ft 64 kts 110°
2026-04-25 08:37 -7.90665 110.06167 32 ft 37 kts 90°
2026-04-25 08:38 -7.90639 110.06346 34 ft 23 kts 79°
2026-04-25 08:38 -7.90588 110.06475 32 ft 18 kts 26°
2026-04-25 08:38 -7.90474 110.06497 37 ft 17 kts 328°
2026-04-25 08:38 -7.90417 110.06395 37 ft 17 kts 291°
2026-04-25 08:39 -7.90376 110.06290 37 ft 16 kts 291°
2026-04-25 08:39 -7.90337 110.06187 37 ft 15 kts 290°
2026-04-25 08:39 -7.90301 110.06088 37 ft 15 kts 289°
2026-04-25 08:39 -7.90266 110.05995 37 ft 14 kts 292°
2026-04-25 08:40 -7.90232 110.05906 37 ft 13 kts 291°
2026-04-25 08:40 -7.90207 110.05842 36 ft 0 kts 301°
2026-04-25 08:40 -7.90203 110.05839 36 ft 2 kts 321°
2026-04-25 08:41 -7.90187 110.05840 37 ft 3 kts 13°
2026-04-25 08:41 -7.90158 110.05851 36 ft 6 kts 21°
2026-04-25 08:41 -7.90117 110.05867 37 ft 4 kts 20°
2026-04-25 08:41 -7.90114 110.05868 37 ft 0 kts 20°
2026-04-25 08:42 -7.90113 110.05868 37 ft 0 kts 20°
2026-04-25 08:42 -7.90111 110.05869 37 ft 0 kts 20°